Location: Dompnac
(44.5644°N, 4.1026°E)
Time: 20:46:25
(UTC+00:00)

Nadezhda 4 Rocket - Pass Details

Date: 19 September 2020
Orbit: 949 x 992 km, 82.9° (Epoch: 27 October)

Event Time Altitude Azimuth Distance (km) Brightness Sun altitude
Rises 19:15:13 0° 353° (N) 3,637 7.3 -16.4°
Reaches altitude 10° 19:17:45 10° 356° (N) 2,685 6.6 -16.8°
Maximum altitude 19:23:52 70° 80° (E) 1,009 3.9 -17.9°
Enters shadow 19:29:14 14° 163° (SSE) 2,411 5.7 -18.8°
